Terminal Aerodrome Forecast
Issued by NWS Mt. Holly, NJ

Home | Current Version | Previous Version | Text Only | Print | Product List | Glossary On
Versions: 1 2 3 4 5 6 7 8 9 10 11 12 13 14 15 16 17 18 19 20 21 22 23 24 25
000
FTAK31 PANC 230324 AAA
TAFABE
TAF AMD
PABE 230324Z 2303/2324 35012KT P6SM -SN BKN025
     FM230400 36008KT P6SM SCT025 BKN200
     FM231500 04010KT P6SM SCT200=

USA.gov is the U.S. government's official web portal to all federal, state and local government web resources and services.